Regional Weather Roundup
Issued by NWS Sioux Falls, SD

Home | Current Version | Previous Version | Text Only | Print | Product List | Glossary Off
Versions: 1 2 3 4 5 6 7 8 9 10 11 12 13 14 15 16 17 18 19 20 21 22 23 24 25 26 27 28 29 30 31 32 33 34 35 36 37 38 39 40 41 42 43 44 45 46 47 48 49 50

000
ASUS43 KFSD 272310
RWRFSD

WEATHER ROUNDUP FOR SE SOUTH DAKOTA/SW MINNESOTA/NW IOWA
NATIONAL WEATHER SERVICE SIOUX FALLS SD
600 PM CDT TUE SEP 27 2016

NOTE: "FAIR" INDICATES FEW OR NO CLOUDS BELOW 12,000 FEET WITH NO
SIGNIFICANT WEATHER AND OR OBSTRUCTIONS TO VISIBILITY.


SDZ038>040-050-052>070-280000-
SOUTHEAST SOUTH DAKOTA

CITY           SKY/WX    TMP DP  RH WIND       PRES   REMARKS
BROOKINGS      SUNNY     68  41  37 N13       29.86S
CHAMBERLAIN    SUNNY     79  46  30 N12       29.90S
HURON          SUNNY     75  40  28 N17       29.87S
MADISON        FAIR      68  41  37 NW15G21   29.88S
MITCHELL       SUNNY     76  42  29 N12       29.87F
SIOUX FALLS    MOSUNNY   74  43  32 NW13      29.85F
WINNER         FAIR      82  43  25 N20       29.91S
YANKTON        SUNNY     75  46  35 NW13      29.85F
$$

MNZ071-072-080-081-089-090-097-098-280000-
SOUTHWEST MINNESOTA

CITY           SKY/WX    TMP DP  RH WIND       PRES   REMARKS
FAIRMONT       MOSUNNY   66  31  27 NW14      29.81S
JACKSON        MOSUNNY   68  23  18 NW9       29.84R
LUVERNE        SUNNY     70  36  28 NW12G17   29.86S
MARSHALL       MOSUNNY   69  28  21 N16G23    29.84R
MONTEVIDEO     CLOUDY    68  30  24 N16       29.85R
PIPESTONE      SUNNY     70  32  24 NW12G22   29.86F
REDWOOD FALLS  CLOUDY    64  32  30 NW10      29.82S
TRACY          MOSUNNY   70  33  25 NW14G20   29.84S
WINDOM         MOSUNNY   66  27  22 NW10      29.84R
WORTHINGTON    SUNNY     68  40  35 NW14      29.85S
$$

IAZ001>003-012>014-020>022-031-032-NEZ013-014-SDZ071-280000-
NORTHWEST IOWA

CITY           SKY/WX    TMP DP  RH WIND       PRES   REMARKS
CHEROKEE       SUNNY     71  43  35 NW13G21   29.84S
DENISON        SUNNY     73  43  33 W12G20    29.83F
ESTHERVILLE    MOSUNNY   68  35  29 NW13G22   29.81S
LE MARS        SUNNY     73  45  35 NW16      29.85F
ORANGE CITY    SUNNY     72  45  37 NW12G25   29.85S
SHELDON        SUNNY     72  43  35 NW13G22   29.83F
SIOUX CITY     SUNNY     75  47  36 NW13      29.86S
SPENCER        SUNNY     70  42  36 NW17G26   29.83S
STORM LAKE     SUNNY     72  41  33 NW18G24   29.84F
$$

ABBREVIATIONS USED IN REMARKS
   TC - TEMPERATURE IN CELSIUS
  WCI - WIND CHILL INDEX
   HX - HEAT INDEX
  VSB - VISIBILITY




USA.gov is the U.S. government's official web portal to all federal, state and local government web resources and services.